Other Public Products
Issued by NWS Grand Forks, ND

Home | Current Version | Previous Version | Graphics & Text | Print | Product List | Glossary On
Versions: 1 2 3 4 5 6 7 8 9 10 11 12 13 14 15 16 17 18 19 20 21 22 23 24 25 26 27 28 29 30 31 32 33 34 35 36 37 38 39 40 41 42 43 44 45 46 47 48 49 50
000
FPUS83 KFGF 291610
OPUFGF
PRAIRIE TO PINES WEATHER ROUNDUP
NATIONAL WEATHER SERVICE EASTERN NORTH DAKOTA/GRAND FORKS ND
1100 AM CDT SUN MAY 29 2016

 **SATELLITE DATA USED TO AUGMENT SKY COVER AT AUTOMATED STATIONS**
 *****  WEATHER ACROSS EASTERN NORTH DAKOTA  *****

CITY           SKY/WX    TMP DP  RH WIND       PRES   REMARKS
GRAND FORKS    CLOUDY    65  56  72 NW9       29.93S
GRAND FORKS AF CLOUDY    65  56  73 N10       29.94R
GRAND CITY NWS   N/A     63 N/A N/A N10         N/A
BUXTON           N/A     65  60  81 NW12        N/A
DEVILS LAKE    SUNNY     67  53  61 W14       29.96R
FARGO          CLOUDY    67  57  70 W10       29.95R
WAHPETON ARPT  PTSUNNY   68  54  60 NW10      29.97R
$$

 *****  WEATHER ACROSS CENTRAL AND WESTERN NORTH DAKOTA  *****

CITY           SKY/WX    TMP DP  RH WIND       PRES   REMARKS
JAMESTOWN      MOSUNNY   68  52  56 NW13      29.98S
BISMARCK       SUNNY     69  52  54 W10       30.03S
MINOT          SUNNY     72  45  37 W10       29.97S
MINOT AFB      SUNNY     67  50  53 NW14      29.96S
GARRISON         N/A     68  45  43 W14       30.00F
WILLISTON      SUNNY     66  41  40 SW10      30.01S
DICKINSON      SUNNY     67  41  38 VRB3      30.03F
HETTINGER      SUNNY     68  46  45 W8        30.07F
$$

 *****  OTHER OBSERVATIONS NORTHEAST NORTH DAKOTA  *****

CITY           SKY/WX    TMP DP  RH WIND       PRES   REMARKS
WALHALLA       FAIR      59  55  88 NW6       29.93S
LANGDON        CLOUDY    61  57  88 NW14      29.95R
CAVALIER       PTSUNNY   63  57  82 W9        29.93S
GRAFTON        PTSUNNY   64  59  82 NW7       29.95S
CANDO          NOT AVBL
FORT TOTTEN      N/A     68  59  73 NW7       29.95S
ROLLA          FAIR      64  52  63 NW14      29.95F
RUGBY          FAIR      64  54  68 W14G20    29.97S
 ***** THE ABOVE OBSERVATIONS ARE NON NWS ARE NOT QUALITY
        CONTROLLED AND MAY MIS-REPORT RAIN FOR SNOW...
$$

 *****  OTHER OBSERVATIONS SOUTHEAST NORTH DAKOTA *****

CITY           SKY/WX    TMP DP  RH WIND       PRES   REMARKS
COOPERSTOWN    NOT AVBL
VALLEY CITY    FAIR      66  59  77 NW16      29.99S
OAKES            N/A    N/A N/A N/A MISG        N/A
GWINNER        FAIR      68  61  77 NW14      29.99S
SHEYENNE NWR     N/A     67  60  78 NW7       29.95S
BUFFALO          N/A     65  61  87 W12         N/A
WYNDMERE         N/A     72  59  64 NW12        N/A
 ***** THE ABOVE OBSERVATIONS ARE NON NWS ARE NOT QUALITY
       CONTROLLED AND MAY MIS-REPORT RAIN FOR SNOW...
$$

  *****  WEATHER ACROSS NORTHERN MINNESOTA  *****

CITY           SKY/WX    TMP DP  RH WIND       PRES   REMARKS
FLAG ISLAND    CLOUDY    55  54  94 NW13      29.86S
WARROAD        CLOUDY    57  54  88 NW10      29.89S
ROSEAU         CLOUDY    57  54  88 NW9       29.90R
HALLOCK        CLOUDY    61  57  88 NW12      29.92S
THF RVR FALLS  PTSUNNY   61  54  77 NW12      29.94S
HALSTAD        NOT AVBL
FOSSTON        CLOUDY    57  54  88 NW13G21   29.95R
BAUDETTE       CLOUDY    57  53  86 NW15G21   29.87R
WASKISH        CLOUDY    57  55  94 W12       29.89R
CROOKSTON      PTSUNNY   63  57  82 NW9       29.94S
$$
  *****  WEATHER ACROSS CENTRAL AND WEST MINNESOTA  *****

CITY           SKY/WX    TMP DP  RH WIND       PRES   REMARKS
BEMIDJI        CLOUDY    60  55  84 W13       29.91R
PARK RAPIDS    CLOUDY    64  58  80 NW15      29.93R
WADENA         CLOUDY    63  57  82 W7        29.94S
DETROIT LAKES  CLOUDY    63  57  82 NW10      29.96R
MOORHEAD       PTSUNNY   64  57  77 NW9       29.97R
FERGUS FALLS   MOSUNNY   66  59  77 NW14      29.93S
ELBOW LAKE     CLOUDY    66  59  78 NW13      29.98R
MORRIS MN      MOSUNNY   68  61  77 NW8       29.97R
STAPLES        CLOUDY    63  55  77 W10       29.94R
WHEATON        SUNNY     73  61  64 W9G16     29.99R
$$
  *****  WEATHER ELSEWHERE ACROSS MINNESOTA  *****

CITY           SKY/WX    TMP DP  RH WIND       PRES   REMARKS
DULUTH         CLOUDY    61  56  83 W14       29.84R
INTRNTL FALLS  LGT RAIN  57  54  89 W9        29.83S
ELY            RAIN      57  55  94 W9G16     29.80S
CLOQUET        CLOUDY    63  54  72 W16G23    29.86R
BRAINERD       CLOUDY    62  56  80 W10       29.93R
HIBBING        CLOUDY    60  53  77 NW16G22   29.85R
ALEXANDRIA     PTSUNNY   65  57  75 NW12      29.98R
SAINT CLOUD    CLOUDY    67  57  70 NW14      29.95R
MINNEAPOLIS    PTSUNNY   71  59  65 NW13      29.94R
$$

  *****  WEATHER ACROSS SOUTH DAKOTA  *****

CITY           SKY/WX    TMP DP  RH WIND       PRES   REMARKS
SIOUX FALLS    MOSUNNY   72  60  66 NW8       30.05R
BROOKINGS      SUNNY     68  57  68 W12       30.04R
WATERTOWN      SUNNY     69  55  60 W13       30.02R
HURON          SUNNY     71  57  61 NW8       30.04S
SISSETON         N/A     71  57  61 NW16      29.97R
ABERDEEN       SUNNY     73  52  47 N12       30.01S
MITCHELL       SUNNY     71  58  63 NW7       30.07R
PIERRE         SUNNY     68  54  60 CALM      30.06F
MOBRIDGE       SUNNY     69  51  52 NW6       30.03F
RAPID CITY     PTSUNNY   64  49  57 S6        30.10F
$$

  *****  SOME WEATHER IN NEARBY STATES *****

CITY           SKY/WX    TMP DP  RH WIND       PRES   REMARKS
GLASGOW MT     SUNNY     60  40  47 W6        30.00F
GREAT FALLS MT SUNNY     63  35  35 SW15G23   30.02F
CHEYENNE WY    SUNNY     68  36  30 S10       30.19F
SCOTTSBLUFF NE SUNNY     67  49  52 CALM      30.13S
OMAHA NE       PTSUNNY   72  57  59 S6        30.09F
DES MOINES IA  MOSUNNY   74  58  57 W9        30.08S
DAVENPORT IA   PTSUNNY   72  61  68 W14       30.06S
CHICAGO IL     PTSUNNY   75  59  57 SW20G26   30.00R
EAU CLAIRE WI  CLOUDY    66  61  84 W17G23    29.91R
LA CROSSE WI   CLOUDY    70  59  68 W15       29.95R
$$

  *****  SOME NATIONAL WEATHER *****

CITY           SKY/WX    TMP DP  RH WIND       PRES   REMARKS
LA GUARDIA NY  CLOUDY    86  65  49 S13       30.12F
RALEIGH NC     RAIN      72  70  94 N6        30.09F FOG
ATLANTA GA     PTSUNNY   84  61  45 NW8       30.14S
NEW ORLEANS LA PTSUNNY   85  72  65 N8        30.13R HX  91
OKLAHOMA CITY  MOSUNNY   80  60  50 SW7       30.15F
ALBUQUERQUE NM MOSUNNY   71  14  11 SW8       30.19R
SALT LAKE CITY MOSUNNY   69  41  36 SE5       30.10R
LOS ANGELES CA CLOUDY    62  54  74 W7        30.02R
BOISE ID       SUNNY     67  32  27 SE12      30.04F
SEATTLE WA     CLOUDY    55  50  83 SW6       30.12R
$$

*** WEATHER ACROSS MANITOBA...SASKATCHEWAN AND ONTARIO ***
                ***ONTARIO***

CITY           SKY/WX    TMP DP  RH WIND       PRES   REMARKS
GERALDTON      DRZL/FOG  57  55  94 N5        29.75F VSB 3/4
THUNDER BAY    CLOUDY    57  55  94 E9        29.75S FOG
SIOUX LOOKOUT  DRIZZLE   55  52  88 NW6       29.79S
TORONTO        PTSUNNY   84  64  51 SW7G17    30.01F
BIG TROUT LK   LGT RAIN  45  43  93 NE9       29.98F
PICKLE LAKE    CLOUDY    48  46  93 E6        29.83F
DRYDEN         LGT RAIN  55  54  94 N3        29.80S FOG
KENORA         NOT AVBL
$$
                *** MANITOBA***

CITY           SKY/WX    TMP DP  RH WIND       PRES   REMARKS
BRANDON        PTSUNNY   61  55  82 W8        29.93F
DAUPHIN        CLOUDY    57  54  88 VRB2      29.92F
ISLAND LAKE    LGT RAIN  50  50 100 NE6       29.95F
PILOT MOUND      N/A     59  54  82 NW10        N/A
THE PAS        CLOUDY    48  45  87 NE3       29.95S
THOMPSON       DRIZZLE   48  46  93 E7        29.99F
WINNIPEG       PTSUNNY   63  55  77 NW13      29.90S
LYNN LAKE      CLOUDY    46  43  87 E9        30.00F
CHURCHILL      CLOUDY    30  27  86 NE13      30.22F WCI  20
GILLAM         CLOUDY    43  39  87 NE9       30.07F
$$
                ***SASKATCHEWAN***

CITY           SKY/WX    TMP DP  RH WIND       PRES   REMARKS
ESTEVAN        SUNNY     64  46  52 W10       29.97S
KINDERSLEY     MOSUNNY   57  46  67 VRB2      29.88S
LLOYDMINSTER   PTSUNNY   54  50  87 N6        29.88F
PRINCE ALBERT  NOT AVBL
REGINA         MOSUNNY   61  50  67 SW8       29.93F
YORKTON        PTSUNNY   63  50  63 W9        29.90F  C1F1C2F2C3F3C4F4C5F5C6F6C7F7C8F8C9F9CaFaCbFbCcFcCdFdCe!



USA.gov is the U.S. government's official web portal to all federal, state and local government web resources and services.